loading
|

DELTA 1 DEB, 3127

Orbit data source: Space-Track

DELTA 1 DEB, 3127 is space debris in LEO originally from a launch on Thu, 11 Jan 1968 UTC launched from the Air Force Western Test Range (AFWTR). Debris objects in space refer to the collection of defunct objects orbiting the Earth. Examples of debris include non-operational satellites, rocket bodies, and fragments generated from explosions, collisions, or faulty payload assembly.

Loading next visibility...
Loading greatness...
DELTA 1 DEB details
Identifier
3127, 1968-002D
Orbit
LEO
Last TLE update3 days ago
Origin
Flag of USGSFC (US)
ManufacturerUnknown
MissionSpacecraft
Bus & MotorUnknown bus, Unknown motor
MassUnknown
Launch date (UTC)
1968-01-11 (57 years ago)
Launch vehicleUnknown
Launch site
Air Force Western Test Range (AFWTR)
Object type
Payload
Rocket body
Debris
Shape & HBRUnknown
Radar Cross SectionSmall (<0.1 m²)

Expand to show TLE details & history

TLE from 3 days ago
0 DELTA 1 DEB
1 03127U 68002D   24281.54108869  .00000009  00000-0  27249-3 0  9993
2 03127 105.3040 194.2851 0321637 263.7438 273.9057 12.84844590659630
Epoch: 2024-10-07T12:59Z
Definitive object data (Epoch: 2024-10-07T12:59:10.062Z)
Latitude5.74966°
Longitude164.39693°
Altitude1,315.032 km
Speed7.204 km/s
True Right ascension01h 03m 25s
True Declination5° 43' 05"
Sunlit
Object was in full shadow at TLE epoch
Predictive object data (real-time)
Latitude46.13421°
Longitude-176.06477°
Altitude1,469.97 km
Speed7.066 km/s
Apparent Right ascension03h 45m 09s
Apparent Declination9° 16' 13"
Sunlit
Object is in full shadow
Predictive observer data (real-time)
Local Sidereal Time17:18:36
Azimuth29.037° NE
Elevation-36.267°
Doppler factor1
Orbital elements
Apogee1,567.387 km
Perigee1,072.199 km
Semi-major axis7,697.93 km
Eccentricity0.0321637
Inclination105.304°
RAAN194.2851°
Arg. of periapsis263.7438°
True anomaly270.22102°
Mean anomaly273.9057°
Eccentric anomaly272.06405°
Mean motion3.21353 °/min
BSTAR0.00027249
Period112.03 mins
No data available

DELTA 1 DEB Visibility forecast

Observer location: 39.9160978°, -105.1181434

DELTA 1 DEB is not visible in the next 10 days
Span
Click to sort rows by Start time (UTC) header in descending order
Start Az.
Max El. time (UTC)
Max El. Az.
Max El.
End time (UTC)
End Az.